Soleil Weather Down

Update 12/10/18:

We are back in town and I have ordered a new weather instrument and transmission unit. After numerous repairs over the past 11 years, I decided it did not make sense to spend more on the old unit. The new one is on back order, but I expect to have it within 2 weeks. Hopefully the station will be fully up by the first of the year. I am installing software on a new computer as well. I miss the local weather! Happy Holidays!

Nearby METAR Reports

 

KCNI - Canton/Cherokee, Georgia, USA
Distance from station: ENE 6mi, 10km
Updated: Tue, 18-Dec-2018 12:35pm EST
Clear
Clear
 Wind from NNE
Wind: NNE 3 mph , 6 km/h
Temperature: 63°F , 17°C
Dew Point: 16°F , -9°C
Humidity: 16%
Barometer: 30.07 inHg , 1018.3 hPa
Clouds: Clear
Visibility: 10 miles , 16 km
2018/12/18 17:35 KCNI 181735Z AUTO 03003KT 10SM CLR 17/M09 A3007 RMK AO2
KRYY - Marietta Mccolum, Georgia, USA
Distance from station: SSW 18mi, 29km
Updated: Tue, 18-Dec-2018 11:48am EST
Clear
Clear
 Wind from NNW
Wind: NNW 9 mph , 15 km/h
Temperature: 55°F , 13°C
Dew Point: 27°F , -3°C
Humidity: 33%
Barometer: 30.09 inHg , 1019 hPa
Clouds: Clear
Visibility: 10 miles , 16 km
2018/12/18 16:48 KRYY 181648Z 34008KT 10SM CLR 13/M03 A3009 RMK AO2 PRESFR SLP911 T01331033
KVPC - Cartersville, Georgia, USA
Distance from station: WSW 22mi, 35km
Updated: Tue, 18-Dec-2018 11:53am EST
Clear
Clear
 Wind from N
Wind: N 8 mph , 13 km/h
Temperature: 55°F , 13°C
Dew Point: 32°F , 0°C
Humidity: 41%
Barometer: 30.11 inHg , 1019.6 hPa
Clouds: Clear
Visibility: 10 miles , 16 km
2018/12/18 16:53 KVPC 181653Z AUTO 01007KT 10SM CLR 13/00 A3011 RMK AO2 SLP194 T01280000
 
KMGE - Dobbins Afb/Mari, Georgia, USA
Distance from station: S 24mi, 39km
Updated: Tue, 18-Dec-2018 9:56am EST
NOT Current
Clear
Clear
 Wind from NW
Wind: NW 8 mph , 13 km/h
Temperature: 48°F , 9°C
Wind Chill: 44°F , 7°C
Dew Point: 32°F , 0°C
Humidity: 54%
Barometer: 30.14 inHg , 1020.7 hPa
Clouds: Clear
Visibility: 10 miles , 16 km
2018/12/18 14:56 KMGE 181456Z 32007KT 10SM CLR 09/00 A3014 RMK AO2A SLP210 T00930002 53010 $
KPDK - Peachtree/Dekalb, Georgia, USA
Distance from station: SSE 29mi, 47km
Updated: Tue, 18-Dec-2018 11:53am EST
Clear
Clear
 Wind from N
Wind: N 7 mph , 11 km/h
Temperature: 57°F , 14°C
Dew Point: 28°F , -2°C
Humidity: 33%
Barometer: 30.10 inHg , 1019.3 hPa
Clouds: Clear
Visibility: 10 miles , 16 km
2018/12/18 16:53 KPDK 181653Z 01006KT 10SM CLR 14/M02 A3010 RMK AO2 SLP194 T01391022
KFTY - Atlanta/Fulton, Georgia, USA
Distance from station: S 34mi, 54km
Updated: Tue, 18-Dec-2018 11:53am EST
Clear
Clear
 Wind from N
Wind: N 12 mph , 19 km/h
Temperature: 59°F , 15°C
Dew Point: 27°F , -3°C
Humidity: 29%
Barometer: 30.08 inHg , 1018.6 hPa
Clouds: Clear
Visibility: 10 miles , 16 km
2018/12/18 16:53 KFTY 181653Z 01010KT 10SM CLR 15/M03 A3008 RMK AO2 SLP186 T01501033
 
KPUJ - Atlanta/Paulding, Georgia, USA
Distance from station: SW 34mi, 55km
Updated: Tue, 18-Dec-2018 12:35pm EST
Clear
Clear
 Wind from N
Wind: N 6 mph , 9 km/h
Temperature: 55°F , 13°C
Dew Point: 28°F , -2°C
Humidity: 36%
Barometer: 30.08 inHg , 1018.6 hPa
Clouds: Clear
Visibility: 10 miles , 16 km
2018/12/18 17:35 KPUJ 181735Z AUTO 36005KT 10SM CLR 13/M02 A3008 RMK AO2
KDNN - Dalton, Georgia, USA
Distance from station: NW 37mi, 59km
Updated: Tue, 18-Dec-2018 12:35pm EST
Clear
Clear
 Wind from N
Wind: N 10 mph , 17 km/h, Gust: 16 mph , 26 km/h
Temperature: 54°F , 12°C
Dew Point: 36°F , 2°C
Humidity: 51%
Barometer: 30.12 inHg , 1020 hPa
Clouds: Clear
Visibility: 10 miles , 16 km
2018/12/18 17:35 KDNN 181735Z AUTO 01009G14KT 10SM CLR 12/02 A3012 RMK AO2
KLZU - Lawrenceville, Georgia, USA
Distance from station: ESE 37mi, 59km
Updated: Tue, 18-Dec-2018 11:56am EST
Clear
Clear
 Wind from NNE
Wind: NNE 5 mph , 7 km/h
Temperature: 59°F , 15°C
Dew Point: 28°F , -2°C
Humidity: 31%
Barometer: 30.10 inHg , 1019.3 hPa
Clouds: Clear
Visibility: 10 miles , 16 km
2018/12/18 16:56 KLZU 181656Z 02004KT 10SM CLR 15/M02 A3010 RMK AO2 SLP203 T01501022
 
KRMG - Rome, Georgia, USA
Distance from station: W 38mi, 61km
Updated: Tue, 18-Dec-2018 11:53am EST
Clear
Clear
 Wind from NE
Wind: NE 15 mph , 24 km/h
Temperature: 55°F , 13°C
Dew Point: 28°F , -2°C
Humidity: 36%
Barometer: 30.10 inHg , 1019.3 hPa
Clouds: Clear
Visibility: 10 miles , 16 km
2018/12/18 16:53 KRMG 181653Z AUTO 05013KT 10SM CLR 13/M02 A3010 RMK AO2 SLP191 T01331017
KGVL - Gainesville, Georgia, USA
Distance from station: E 39mi, 62km
Updated: Tue, 18-Dec-2018 11:53am EST
Clear
Clear
 Wind from NE
Wind: NE 6 mph , 9 km/h
Temperature: 57°F , 14°C
Dew Point: 27°F , -3°C
Humidity: 31%
Barometer: 30.12 inHg , 1020 hPa
Clouds: Clear
Visibility: 10 miles , 16 km
2018/12/18 16:53 KGVL 181653Z AUTO 05005KT 10SM CLR 14/M03 A3012 RMK AO2 SLP194 T01441028
KATL - Atlanta, Georgia, USA
Distance from station: S 44mi, 71km
Updated: Tue, 18-Dec-2018 11:52am EST
Few Clouds
Few Clouds
 Wind from NNE
Wind: NNE 14 mph , 22 km/h
Temperature: 57°F , 14°C
Dew Point: 27°F , -3°C
Humidity: 31%
Barometer: 30.09 inHg , 1019 hPa
Clouds: Few Clouds
Visibility: 10 miles , 16 km
Cloud details: Few Clouds 12000 ft
Few Clouds 25000 ft
2018/12/18 16:52 KATL 181652Z 03012KT 10SM FEW120 FEW250 14/M03 A3009 RMK AO2 SLP189 T01441028